Colorado City, AZ

11:51 AM MST on October 14, 2019 (GMT -0700)
Colorado City Municipal

Weather History for KAZC - August, 2019

Change the Weather History Date:

Saturday, August 24, 2019

  Actual Average (WUND) Record (WUND)
Temperature  
Mean Temperature 73 °F -  
Max Temperature 95 °F - - (-1)
Min Temperature 51 °F - - (-1)
Cooling Degree Days 8    
Growing Degree Days 23 (Base 50)    
Moisture  
Dew Point 38 °F    
Average Humidity 29    
Maximum Humidity 58    
Minimum Humidity 13    
Precipitation  
Precipitation 0.00 in - - ()
Sea Level Pressure  
Sea Level Pressure 30.17 in    
Wind  
Wind Speed 5 mph (SW)    
Max Wind Speed 14 mph    
Max Gust Speed 26 mph    
Visibility 10 miles    
Events      
Averages and records for this station are not official NWS values.
T = Trace of Precipitation, MM = Missing Value Source: NWS Daily Summary

Daily Weather History Graph

Daily Weather History Graph

Search for Another Location

Airport or City:

Astronomy

Aug. 24, 2019 Rise Set
Actual Time 5:56 AM MST 7:12 PM MST
Civil Twilight 5:29 AM MST 7:38 PM MST
Nautical Twilight 4:56 AM MST 8:11 PM MST
Astronomical Twilight 4:23 AM MST 8:44 PM MST
Moon No Moon Rise 2:28 PM MST (8/24)
Length of Visible Light 14h 09m
Length of Day
13h 15m
Last Quarter, 38% of the Moon is Illuminated
Aug 24
Last Quarter
Aug 30
New
Sep 5
First Quarter
Sep 13
Full
Sep 21
Last Quarter

Hourly Weather History & Observations

Time (MST) Temp. Dew Point Humidity Pressure Visibility Wind Dir Wind Speed Gust Speed Precip Events Conditions
12:15 AM 59.0 °F 32.0 °F 36% 30.12 in - ESE 4.6 mph - N/A   Clear
12:35 AM 59.0 °F 32.0 °F 36% 30.13 in - ESE 5.8 mph - N/A   Clear
12:55 AM 59.0 °F 32.0 °F 36% 30.13 in - East 4.6 mph - N/A   Clear
1:15 AM 60.8 °F 32.0 °F 34% 30.15 in - ESE 5.8 mph - N/A   Clear
1:35 AM 59.0 °F 32.0 °F 36% 30.15 in - Calm Calm - N/A   Clear
1:55 AM 59.0 °F 32.0 °F 36% 30.15 in - Calm Calm - N/A   Clear
2:15 AM 57.2 °F 32.0 °F 38% 30.15 in - SSE 6.9 mph - N/A   Clear
2:35 AM 57.2 °F 32.0 °F 38% 30.15 in - Calm Calm - N/A   Clear
2:55 AM 59.0 °F 32.0 °F 36% 30.16 in - Calm Calm - N/A   Clear
3:15 AM 55.4 °F 32.0 °F 41% 30.16 in - ESE 4.6 mph - N/A   Clear
3:35 AM 55.4 °F 32.0 °F 41% 30.15 in - Calm Calm - N/A   Clear
3:55 AM 53.6 °F 33.8 °F 47% 30.15 in - South 3.5 mph - N/A   Clear
4:15 AM 55.4 °F 33.8 °F 44% 30.16 in - SSE 3.5 mph - N/A   Clear
4:35 AM 53.6 °F 33.8 °F 47% 30.16 in - Calm Calm - N/A   Clear
4:55 AM 51.8 °F 33.8 °F 50% 30.16 in - SSE 4.6 mph - N/A   Clear
5:15 AM 55.4 °F 35.6 °F 47% 30.17 in - Calm Calm - N/A   Clear
5:35 AM 53.6 °F 35.6 °F 51% 30.18 in - SE 3.5 mph - N/A   Clear
5:55 AM 53.6 °F 35.6 °F 51% 30.18 in 10.0 mi ESE 3.5 mph - N/A   Clear
6:15 AM 51.8 °F 37.4 °F 58% 30.19 in 10.0 mi SE 4.6 mph - N/A   Clear
6:35 AM 55.4 °F 37.4 °F 51% 30.20 in 10.0 mi Calm Calm - N/A   Clear
6:55 AM 60.8 °F 41.0 °F 48% 30.20 in 10.0 mi Calm Calm - N/A   Clear
7:15 AM 64.4 °F 42.8 °F 45% 30.20 in 10.0 mi Calm Calm - N/A   Clear
7:35 AM 71.6 °F 42.8 °F 35% 30.21 in 10.0 mi SE 3.5 mph - N/A   Clear
7:55 AM 77.0 °F 44.6 °F 32% 30.21 in 10.0 mi East 3.5 mph - N/A   Clear
8:15 AM 78.8 °F 44.6 °F 30% 30.22 in 10.0 mi East 3.5 mph - N/A   Clear
8:35 AM 78.8 °F 44.6 °F 30% 30.22 in 10.0 mi Calm Calm - N/A   Clear
8:55 AM 82.4 °F 48.2 °F 30% 30.22 in 10.0 mi SW 4.6 mph - N/A   Clear
9:15 AM 82.4 °F 48.2 °F 30% 30.21 in 10.0 mi SSW 5.8 mph - N/A   Clear
9:35 AM 84.2 °F 46.4 °F 27% 30.22 in 10.0 mi WSW 8.1 mph - N/A   Clear
9:55 AM 86.0 °F 48.2 °F 27% 30.22 in 10.0 mi SW 9.2 mph - N/A   Clear
10:15 AM 86.0 °F 46.4 °F 25% 30.22 in 10.0 mi SW 9.2 mph - N/A   Clear
10:35 AM 87.8 °F 46.4 °F 24% 30.21 in 10.0 mi SSW 6.9 mph - N/A   Clear
10:55 AM 87.8 °F 46.4 °F 24% 30.22 in 10.0 mi SSW 8.1 mph - N/A   Clear
11:15 AM 87.8 °F 44.6 °F 22% 30.21 in 10.0 mi SSW 6.9 mph - N/A   Clear
11:35 AM 89.6 °F 42.8 °F 20% 30.20 in 10.0 mi WSW 13.8 mph 17.3 mph N/A   Clear
11:55 AM 91.4 °F 42.8 °F 18% 30.20 in 10.0 mi SW 11.5 mph 16.1 mph N/A   Clear
12:15 PM 91.4 °F 41.0 °F 17% 30.19 in 10.0 mi WSW 9.2 mph - N/A   Clear
12:35 PM 91.4 °F 39.2 °F 16% 30.18 in 10.0 mi SE 3.5 mph - N/A   Clear
12:55 PM 91.4 °F 37.4 °F 15% 30.17 in 10.0 mi NNW 9.2 mph 16.1 mph N/A   Clear
1:15 PM 91.4 °F 37.4 °F 15% 30.17 in 10.0 mi WNW 9.2 mph 20.7 mph N/A   Clear
1:35 PM 91.4 °F 37.4 °F 15% 30.17 in 10.0 mi WNW 4.6 mph 18.4 mph N/A   Clear
1:55 PM 95.0 °F 39.2 °F 14% 30.16 in 10.0 mi WSW 9.2 mph 23.0 mph N/A   Clear
2:15 PM 95.0 °F 41.0 °F 15% 30.15 in 10.0 mi West 4.6 mph - N/A   Clear
2:55 PM 95.0 °F 39.2 °F 14% 30.15 in 10.0 mi West 5.8 mph 16.1 mph N/A   Clear
3:15 PM 95.0 °F 39.2 °F 14% 30.15 in 10.0 mi WNW 10.4 mph - N/A   Clear
3:35 PM 95.0 °F 39.2 °F 14% 30.14 in 10.0 mi West 6.9 mph 26.5 mph N/A   Clear
3:55 PM 95.0 °F 39.2 °F 14% 30.13 in 10.0 mi West 9.2 mph - N/A   Clear
4:15 PM 95.0 °F 39.2 °F 14% 30.13 in 10.0 mi WNW 11.5 mph 18.4 mph N/A   Clear
4:35 PM 93.2 °F 39.2 °F 15% 30.13 in 10.0 mi WNW 10.4 mph 19.6 mph N/A   Clear
4:55 PM 93.2 °F 37.4 °F 14% 30.13 in 10.0 mi WNW 11.5 mph 21.9 mph N/A   Clear
5:15 PM 91.4 °F 35.6 °F 14% 30.14 in 10.0 mi WNW 13.8 mph 20.7 mph N/A   Clear
5:35 PM 91.4 °F 35.6 °F 14% 30.14 in 10.0 mi WNW 13.8 mph 18.4 mph N/A   Clear
5:55 PM 91.4 °F 33.8 °F 13% 30.14 in 10.0 mi WNW 11.5 mph 17.3 mph N/A   Clear
6:15 PM 89.6 °F 33.8 °F 14% 30.14 in 10.0 mi WNW 9.2 mph - N/A   Clear
6:35 PM 89.6 °F 35.6 °F 15% 30.15 in 10.0 mi West 8.1 mph - N/A   Clear
6:55 PM 86.0 °F 33.8 °F 15% 30.15 in 10.0 mi WNW 8.1 mph - N/A   Clear
7:15 PM 82.4 °F 35.6 °F 19% 30.15 in 10.0 mi West 4.6 mph - N/A   Clear
7:35 PM 80.6 °F 35.6 °F 20% 30.15 in 10.0 mi West 6.9 mph - N/A   Clear
7:55 PM 80.6 °F 35.6 °F 20% 30.16 in - West 6.9 mph - N/A   Clear
8:15 PM 78.8 °F 37.4 °F 23% 30.17 in 10.0 mi NW 4.6 mph - N/A   Clear
8:35 PM 73.4 °F 37.4 °F 27% 30.17 in - Calm Calm - N/A   Clear
8:55 PM 75.2 °F 37.4 °F 25% 30.17 in - North 3.5 mph - N/A   Clear
9:15 PM 73.4 °F 35.6 °F 25% 30.17 in - North 4.6 mph - N/A   Clear
9:35 PM 68.0 °F 37.4 °F 33% 30.18 in - Calm Calm - N/A   Clear
9:55 PM 71.6 °F 37.4 °F 29% 30.18 in - Calm Calm - N/A   Clear
10:15 PM 64.4 °F 35.6 °F 34% 30.18 in 10.0 mi SE 6.9 mph - N/A   Clear
10:35 PM 64.4 °F 41.0 °F 42% 30.18 in - East 6.9 mph - N/A   Clear
10:55 PM 64.4 °F 37.4 °F 37% 30.19 in - ESE 6.9 mph - N/A   Clear
11:15 PM 62.6 °F 35.6 °F 37% 30.19 in - ESE 4.6 mph - N/A   Clear
11:35 PM 62.6 °F 35.6 °F 37% 30.18 in - Calm Calm - N/A   Clear
11:55 PM 60.8 °F 33.8 °F 36% 30.19 in 10.0 mi SSE 6.9 mph - N/A   Clear